Time,TemperatureF,DewpointF,PressureIn,WindDirection,WindDirectionDegrees,WindSpeedMPH,WindSpeedGustMPH,Humidity,HourlyPrecipIn,Conditions,Clouds,dailyrainin,SoftwareType,DateUTC
2013-07-09 00:00:00,75.4,68.4,29.98,West,264,0.0,0.0,79,0.00,,,0.00,Wunderground v.1.13,2013-07-09 04:00:00,
2013-07-09 00:05:00,75.3,68.3,29.98,West,264,0.0,0.0,79,0.00,,,0.00,Wunderground v.1.13,2013-07-09 04:05:00,
2013-07-09 00:10:00,75.3,68.7,29.98,West,264,0.0,0.0,80,0.00,,,0.00,Wunderground v.1.13,2013-07-09 04:10:00,
2013-07-09 00:15:00,75.1,68.5,29.98,West,264,0.0,0.0,80,0.00,,,0.00,Wunderground v.1.13,2013-07-09 04:15:00,
2013-07-09 00:20:00,74.9,68.7,29.98,West,264,0.0,0.0,81,0.00,,,0.00,Wunderground v.1.13,2013-07-09 04:20:00,
2013-07-09 00:25:00,74.7,68.5,29.98,West,264,0.0,0.0,81,0.00,,,0.00,Wunderground v.1.13,2013-07-09 04:25:00,
2013-07-09 00:30:00,74.6,68.7,29.98,West,264,0.0,0.0,82,0.00,,,0.00,Wunderground v.1.13,2013-07-09 04:30:00,
2013-07-09 00:35:00,74.6,68.7,29.98,West,264,0.0,0.0,82,0.00,,,0.00,Wunderground v.1.13,2013-07-09 04:35:00,
2013-07-09 00:40:00,74.4,68.9,29.98,West,264,0.0,0.0,83,0.00,,,0.00,Wunderground v.1.13,2013-07-09 04:40:00,
2013-07-09 00:50:00,74.0,68.5,29.98,West,264,0.0,0.0,83,0.00,,,0.00,Wunderground v.1.13,2013-07-09 04:50:00,
2013-07-09 00:55:00,73.9,68.8,29.98,West,264,0.0,0.0,84,0.00,,,0.00,Wunderground v.1.13,2013-07-09 04:55:00,
2013-07-09 01:00:00,73.7,68.6,29.98,West,264,0.0,0.0,84,0.00,,,0.00,Wunderground v.1.13,2013-07-09 05:00:00,
2013-07-09 01:05:00,73.5,68.7,29.98,West,264,0.0,0.0,85,0.00,,,0.00,Wunderground v.1.13,2013-07-09 05:05:00,
2013-07-09 01:10:00,73.2,68.4,29.98,West,264,0.0,0.0,85,0.00,,,0.00,Wunderground v.1.13,2013-07-09 05:10:00,
2013-07-09 01:15:00,73.2,68.8,29.98,West,264,0.0,0.0,86,0.00,,,0.00,Wunderground v.1.13,2013-07-09 05:15:00,
2013-07-09 01:20:00,73.0,68.6,29.98,West,264,0.0,0.0,86,0.00,,,0.00,Wunderground v.1.13,2013-07-09 05:20:00,
2013-07-09 01:25:00,72.8,68.4,29.98,West,264,0.0,0.0,86,0.00,,,0.00,Wunderground v.1.13,2013-07-09 05:25:00,
2013-07-09 01:30:00,72.7,68.6,29.98,West,264,0.0,0.0,87,0.00,,,0.00,Wunderground v.1.13,2013-07-09 05:30:00,
2013-07-09 01:40:00,72.5,68.4,29.98,West,264,0.0,0.0,87,0.00,,,0.00,Wunderground v.1.13,2013-07-09 05:40:00,
2013-07-09 01:45:00,72.5,68.4,29.98,West,264,0.0,0.0,87,0.00,,,0.00,Wunderground v.1.13,2013-07-09 05:45:00,
2013-07-09 01:50:00,72.3,68.5,29.98,West,264,0.0,0.0,88,0.00,,,0.00,Wunderground v.1.13,2013-07-09 05:50:00,
2013-07-09 01:55:00,72.3,68.5,29.98,West,264,0.0,0.0,88,0.00,,,0.00,Wunderground v.1.13,2013-07-09 05:55:00,
2013-07-09 02:00:00,72.1,68.3,29.98,West,264,0.0,0.0,88,0.00,,,0.00,Wunderground v.1.13,2013-07-09 06:00:00,
2013-07-09 02:05:00,72.0,68.2,29.98,West,264,0.0,0.0,88,0.00,,,0.00,Wunderground v.1.13,2013-07-09 06:05:00,
2013-07-09 02:15:00,71.8,68.4,29.98,West,264,0.0,0.0,89,0.00,,,0.00,Wunderground v.1.13,2013-07-09 06:15:00,
2013-07-09 02:20:00,71.6,68.2,29.98,West,264,0.0,0.0,89,0.00,,,0.00,Wunderground v.1.13,2013-07-09 06:20:00,
2013-07-09 02:25:00,71.5,68.1,29.98,West,264,0.0,0.0,89,0.00,,,0.00,Wunderground v.1.13,2013-07-09 06:25:00,
2013-07-09 02:30:00,71.5,68.1,29.98,West,264,0.0,0.0,89,0.00,,,0.00,Wunderground v.1.13,2013-07-09 06:30:00,
2013-07-09 02:35:00,71.3,67.9,29.98,West,264,0.0,0.0,89,0.00,,,0.00,Wunderground v.1.13,2013-07-09 06:35:00,
2013-07-09 02:40:00,71.3,67.9,29.98,West,264,0.0,0.0,89,0.00,,,0.00,Wunderground v.1.13,2013-07-09 06:40:00,
2013-07-09 02:50:00,71.3,67.9,29.98,West,264,0.0,0.0,89,0.00,,,0.00,Wunderground v.1.13,2013-07-09 06:50:00,
2013-07-09 02:55:00,71.3,67.9,29.98,West,264,0.0,0.0,89,0.00,,,0.00,Wunderground v.1.13,2013-07-09 06:55:00,
2013-07-09 03:00:00,71.1,67.7,29.98,West,264,0.0,0.0,89,0.00,,,0.00,Wunderground v.1.13,2013-07-09 07:00:00,
2013-07-09 03:05:00,71.1,67.7,29.98,West,264,0.0,0.0,89,0.00,,,0.00,Wunderground v.1.13,2013-07-09 07:05:00,
2013-07-09 03:10:00,71.1,68.0,29.98,West,264,0.0,0.0,90,0.00,,,0.00,Wunderground v.1.13,2013-07-09 07:10:00,
2013-07-09 03:20:00,70.9,67.8,29.98,West,264,0.0,0.0,90,0.00,,,0.00,Wunderground v.1.13,2013-07-09 07:20:00,
2013-07-09 03:25:00,70.8,67.7,29.98,West,264,0.0,0.0,90,0.00,,,0.00,Wunderground v.1.13,2013-07-09 07:25:00,
2013-07-09 03:30:00,70.8,68.0,29.98,West,264,0.0,0.0,91,0.00,,,0.00,Wunderground v.1.13,2013-07-09 07:30:00,
2013-07-09 03:35:00,70.8,68.0,29.98,West,264,0.0,0.0,91,0.00,,,0.00,Wunderground v.1.13,2013-07-09 07:35:00,
2013-07-09 03:40:00,70.8,68.0,29.98,West,264,0.0,0.0,91,0.00,,,0.00,Wunderground v.1.13,2013-07-09 07:40:00,
2013-07-09 03:45:00,70.8,68.0,29.98,West,264,0.0,0.0,91,0.00,,,0.00,Wunderground v.1.13,2013-07-09 07:45:00,
2013-07-09 03:55:00,70.6,67.8,29.98,West,264,0.0,0.0,91,0.00,,,0.00,Wunderground v.1.13,2013-07-09 07:55:00,
2013-07-09 04:00:00,70.6,67.8,29.98,West,264,0.0,0.0,91,0.00,,,0.00,Wunderground v.1.13,2013-07-09 08:00:00,
2013-07-09 04:05:00,70.4,67.6,29.98,West,264,0.0,0.0,91,0.00,,,0.00,Wunderground v.1.13,2013-07-09 08:05:00,
2013-07-09 04:10:00,70.4,67.6,29.98,West,264,0.0,0.0,91,0.00,,,0.00,Wunderground v.1.13,2013-07-09 08:10:00,
2013-07-09 04:15:00,70.3,67.5,29.98,West,264,0.0,0.0,91,0.00,,,0.00,Wunderground v.1.13,2013-07-09 08:15:00,
2013-07-09 04:25:00,70.3,67.5,29.98,West,264,0.0,0.0,91,0.00,,,0.00,Wunderground v.1.13,2013-07-09 08:25:00,
2013-07-09 04:30:00,70.3,67.9,29.98,West,264,0.0,0.0,92,0.00,,,0.00,Wunderground v.1.13,2013-07-09 08:30:00,
2013-07-09 04:35:00,70.1,67.7,29.98,West,264,0.0,0.0,92,0.00,,,0.00,Wunderground v.1.13,2013-07-09 08:35:00,
2013-07-09 04:40:00,70.1,67.7,29.98,West,264,0.0,0.0,92,0.00,,,0.00,Wunderground v.1.13,2013-07-09 08:40:00,
2013-07-09 04:45:00,69.9,67.5,29.98,West,264,0.0,0.0,92,0.00,,,0.00,Wunderground v.1.13,2013-07-09 08:45:00,
2013-07-09 04:55:00,69.9,67.5,29.98,West,264,0.0,0.0,92,0.00,,,0.00,Wunderground v.1.13,2013-07-09 08:55:00,
2013-07-09 05:00:00,69.9,67.5,29.99,West,264,0.0,0.0,92,0.00,,,0.00,Wunderground v.1.13,2013-07-09 09:00:00,
2013-07-09 05:05:00,69.8,67.4,29.99,West,264,0.0,0.0,92,0.00,,,0.00,Wunderground v.1.13,2013-07-09 09:05:00,
2013-07-09 05:10:00,69.8,67.4,29.99,West,264,0.0,0.0,92,0.00,,,0.00,Wunderground v.1.13,2013-07-09 09:10:00,
2013-07-09 05:15:00,69.6,67.2,30.00,West,264,0.0,0.0,92,0.00,,,0.00,Wunderground v.1.13,2013-07-09 09:15:00,
2013-07-09 05:25:00,69.6,67.2,30.00,West,264,0.0,0.0,92,0.00,,,0.00,Wunderground v.1.13,2013-07-09 09:25:00,
2013-07-09 05:30:00,69.4,67.0,30.00,West,264,0.0,0.0,92,0.00,,,0.00,Wunderground v.1.13,2013-07-09 09:30:00,
2013-07-09 05:35:00,69.4,67.0,30.00,West,264,0.0,0.0,92,0.00,,,0.00,Wunderground v.1.13,2013-07-09 09:35:00,
2013-07-09 05:40:00,69.4,67.0,30.00,West,264,0.0,0.0,92,0.00,,,0.00,Wunderground v.1.13,2013-07-09 09:40:00,
2013-07-09 05:45:00,69.6,67.2,30.00,West,264,0.0,0.0,92,0.00,,,0.00,Wunderground v.1.13,2013-07-09 09:45:00,
2013-07-09 05:55:00,69.8,67.4,30.00,West,264,0.0,0.0,92,0.00,,,0.00,Wunderground v.1.13,2013-07-09 09:55:00,
2013-07-09 06:00:00,69.8,67.4,30.00,West,264,0.0,0.0,92,0.00,,,0.00,Wunderground v.1.13,2013-07-09 10:00:00,
2013-07-09 06:05:00,69.9,67.5,30.00,West,264,0.0,0.0,92,0.00,,,0.00,Wunderground v.1.13,2013-07-09 10:05:00,
2013-07-09 06:10:00,69.9,67.5,30.00,West,264,0.0,0.0,92,0.00,,,0.00,Wunderground v.1.13,2013-07-09 10:10:00,
2013-07-09 06:15:00,70.1,67.7,30.01,West,264,0.0,0.0,92,0.00,,,0.00,Wunderground v.1.13,2013-07-09 10:15:00,
2013-07-09 06:25:00,70.1,67.7,30.01,West,264,0.0,0.0,92,0.00,,,0.00,Wunderground v.1.13,2013-07-09 10:25:00,
2013-07-09 06:30:00,70.3,67.9,30.01,West,264,0.0,0.0,92,0.00,,,0.00,Wunderground v.1.13,2013-07-09 10:30:00,
2013-07-09 06:35:00,70.4,67.6,30.01,West,264,0.0,0.0,91,0.00,,,0.00,Wunderground v.1.13,2013-07-09 10:35:00,
2013-07-09 06:40:00,70.6,67.8,30.01,West,264,0.0,0.0,91,0.00,,,0.00,Wunderground v.1.13,2013-07-09 10:40:00,
2013-07-09 06:45:00,70.8,68.0,30.01,West,264,0.0,0.0,91,0.00,,,0.00,Wunderground v.1.13,2013-07-09 10:45:00,
2013-07-09 06:50:00,70.9,68.1,30.01,West,264,0.0,0.0,91,0.00,,,0.00,Wunderground v.1.13,2013-07-09 10:50:00,
2013-07-09 07:00:00,71.3,68.2,30.01,West,264,0.0,0.0,90,0.00,,,0.00,Wunderground v.1.13,2013-07-09 11:00:00,
2013-07-09 07:05:00,71.6,68.5,30.01,West,264,0.0,0.0,90,0.00,,,0.00,Wunderground v.1.13,2013-07-09 11:05:00,
2013-07-09 07:10:00,71.8,68.4,30.01,West,264,0.0,0.0,89,0.00,,,0.00,Wunderground v.1.13,2013-07-09 11:10:00,
2013-07-09 07:15:00,72.1,68.3,30.01,West,264,0.0,0.0,88,0.00,,,0.00,Wunderground v.1.13,2013-07-09 11:15:00,
2013-07-09 07:25:00,72.5,68.4,30.01,West,264,0.0,0.0,87,0.00,,,0.00,Wunderground v.1.13,2013-07-09 11:25:00,
2013-07-09 07:30:00,72.8,68.7,30.02,West,264,0.0,0.0,87,0.00,,,0.00,Wunderground v.1.13,2013-07-09 11:30:00,
2013-07-09 07:35:00,73.2,68.8,30.02,West,264,0.0,0.0,86,0.00,,,0.00,Wunderground v.1.13,2013-07-09 11:35:00,
2013-07-09 07:40:00,73.5,68.7,30.02,West,264,0.0,0.0,85,0.00,,,0.00,Wunderground v.1.13,2013-07-09 11:40:00,
2013-07-09 07:45:00,74.0,68.9,30.02,West,264,0.0,0.0,84,0.00,,,0.00,Wunderground v.1.13,2013-07-09 11:45:00,
2013-07-09 07:55:00,74.9,69.0,30.02,SW,224,0.0,1.0,82,0.00,,,0.00,Wunderground v.1.13,2013-07-09 11:55:00,
2013-07-09 08:00:00,75.3,69.1,30.02,SW,224,0.0,0.0,81,0.00,,,0.00,Wunderground v.1.13,2013-07-09 12:00:00,
2013-07-09 08:05:00,75.4,68.8,30.02,SW,224,0.0,0.0,80,0.00,,,0.00,Wunderground v.1.13,2013-07-09 12:05:00,
2013-07-09 08:10:00,75.6,68.6,30.02,SW,224,0.0,0.0,79,0.00,,,0.00,Wunderground v.1.13,2013-07-09 12:10:00,
2013-07-09 08:15:00,76.0,68.6,30.02,SW,224,0.0,0.0,78,0.00,,,0.00,Wunderground v.1.13,2013-07-09 12:15:00,
2013-07-09 08:20:00,76.1,68.7,30.02,SW,224,0.0,0.0,78,0.00,,,0.00,Wunderground v.1.13,2013-07-09 12:20:00,
2013-07-09 08:30:00,76.7,68.6,30.02,SW,224,0.0,0.0,76,0.00,,,0.00,Wunderground v.1.13,2013-07-09 12:30:00,
2013-07-09 08:35:00,76.8,68.3,30.02,SW,224,0.0,0.0,75,0.00,,,0.00,Wunderground v.1.13,2013-07-09 12:35:00,
2013-07-09 08:40:00,76.8,68.3,30.02,SW,224,0.0,0.0,75,0.00,,,0.00,Wunderground v.1.13,2013-07-09 12:40:00,
2013-07-09 08:45:00,77.0,68.5,30.02,SW,224,0.0,0.0,75,0.00,,,0.00,Wunderground v.1.13,2013-07-09 12:45:00,
2013-07-09 08:50:00,77.0,68.5,30.02,North,349,0.0,0.0,75,0.00,,,0.00,Wunderground v.1.13,2013-07-09 12:50:00,
2013-07-09 08:55:00,77.0,68.5,30.02,North,349,0.0,0.0,75,0.00,,,0.00,Wunderground v.1.13,2013-07-09 12:55:00,
2013-07-09 09:00:00,77.0,68.5,30.02,North,349,0.0,0.0,75,0.00,,,0.00,Wunderground v.1.13,2013-07-09 13:00:00,
2013-07-09 09:10:00,78.1,69.1,30.02,North,349,0.0,0.0,74,0.00,,,0.00,Wunderground v.1.13,2013-07-09 13:10:00,
2013-07-09 09:15:00,78.3,69.7,30.02,West,280,0.0,0.0,75,0.00,,,0.00,Wunderground v.1.13,2013-07-09 13:15:00,
2013-07-09 09:20:00,78.8,68.6,30.02,West,280,0.0,0.0,71,0.00,,,0.00,Wunderground v.1.13,2013-07-09 13:20:00,
2013-07-09 09:25:00,79.0,68.4,30.02,West,280,0.0,0.0,70,0.00,,,0.00,Wunderground v.1.13,2013-07-09 13:25:00,
2013-07-09 09:30:00,79.4,68.8,30.02,West,280,0.0,0.0,70,0.00,,,0.00,Wunderground v.1.13,2013-07-09 13:30:00,
2013-07-09 09:40:00,79.8,68.3,30.02,West,280,0.0,1.0,68,0.00,,,0.00,Wunderground v.1.13,2013-07-09 13:40:00,
2013-07-09 09:45:00,80.3,68.8,30.01,WNW,285,0.0,0.0,68,0.00,,,0.00,Wunderground v.1.13,2013-07-09 13:45:00,
2013-07-09 09:50:00,80.3,69.2,30.01,WNW,285,0.0,0.0,69,0.00,,,0.00,Wunderground v.1.13,2013-07-09 13:50:00,
2013-07-09 09:55:00,80.1,69.4,30.01,WNW,285,0.0,0.0,70,0.00,,,0.00,Wunderground v.1.13,2013-07-09 13:55:00,
2013-07-09 10:00:00,80.3,69.2,30.01,WNW,285,0.0,0.0,69,0.00,,,0.00,Wunderground v.1.13,2013-07-09 14:00:00,
2013-07-09 10:10:00,81.1,69.1,30.01,WNW,285,0.0,0.0,67,0.00,,,0.00,Wunderground v.1.13,2013-07-09 14:10:00,
2013-07-09 10:15:00,81.4,69.4,30.01,WNW,285,0.0,0.0,67,0.00,,,0.00,Wunderground v.1.13,2013-07-09 14:15:00,
2013-07-09 10:20:00,81.6,69.1,30.01,WNW,285,0.0,0.0,66,0.00,,,0.00,Wunderground v.1.13,2013-07-09 14:20:00,
2013-07-09 10:25:00,81.6,68.2,30.01,WNW,285,0.0,0.0,64,0.00,,,0.00,Wunderground v.1.13,2013-07-09 14:25:00,
2013-07-09 10:30:00,82.2,68.3,30.01,WNW,285,0.0,1.0,63,0.00,,,0.00,Wunderground v.1.13,2013-07-09 14:30:00,
2013-07-09 10:35:00,82.2,67.9,30.01,West,281,0.0,0.0,62,0.00,,,0.00,Wunderground v.1.13,2013-07-09 14:35:00,
2013-07-09 10:45:00,82.8,68.4,30.01,West,281,0.0,0.0,62,0.00,,,0.00,Wunderground v.1.13,2013-07-09 14:45:00,
2013-07-09 10:50:00,83.2,68.3,30.01,West,281,0.0,0.0,61,0.00,,,0.00,Wunderground v.1.13,2013-07-09 14:50:00,
2013-07-09 10:55:00,83.8,67.9,30.01,West,281,0.0,0.0,59,0.00,,,0.00,Wunderground v.1.13,2013-07-09 14:55:00,
2013-07-09 11:00:00,84.0,67.6,30.01,West,281,0.0,0.0,58,0.00,,,0.00,Wunderground v.1.13,2013-07-09 15:00:00,
2013-07-09 11:10:00,84.9,68.5,30.01,West,281,0.0,0.0,58,0.00,,,0.00,Wunderground v.1.13,2013-07-09 15:10:00,
2013-07-09 11:15:00,85.1,68.2,30.01,West,281,0.0,0.0,57,0.00,,,0.00,Wunderground v.1.13,2013-07-09 15:15:00,
2013-07-09 11:20:00,84.9,68.0,30.01,West,281,0.0,0.0,57,0.00,,,0.00,Wunderground v.1.13,2013-07-09 15:20:00,
2013-07-09 11:25:00,84.9,67.5,30.01,West,278,0.0,3.0,56,0.00,,,0.00,Wunderground v.1.13,2013-07-09 15:25:00,
2013-07-09 11:30:00,84.9,68.0,30.01,West,278,0.0,0.0,57,0.00,,,0.00,Wunderground v.1.13,2013-07-09 15:30:00,
2013-07-09 11:40:00,86.1,68.6,30.01,SE,130,0.0,0.0,56,0.00,,,0.00,Wunderground v.1.13,2013-07-09 15:40:00,
2013-07-09 11:45:00,86.5,67.9,30.01,South,189,0.0,0.0,54,0.00,,,0.00,Wunderground v.1.13,2013-07-09 15:45:00,
2013-07-09 11:50:00,86.7,69.1,30.01,SSW,198,0.0,0.0,56,0.00,,,0.00,Wunderground v.1.13,2013-07-09 15:50:00,
2013-07-09 11:55:00,86.3,68.2,30.01,SSW,206,0.0,0.0,55,0.00,,,0.00,Wunderground v.1.13,2013-07-09 15:55:00,
2013-07-09 12:00:00,86.3,69.3,30.00,SSW,206,0.0,0.0,57,0.00,,,0.00,Wunderground v.1.13,2013-07-09 16:00:00,
2013-07-09 12:05:00,85.9,68.9,30.00,SSW,213,0.0,0.0,57,0.00,,,0.00,Wunderground v.1.13,2013-07-09 16:05:00,
2013-07-09 12:15:00,84.9,68.5,30.01,SSW,213,0.0,0.0,58,0.00,,,0.00,Wunderground v.1.13,2013-07-09 16:15:00,
2013-07-09 12:20:00,84.7,68.3,30.01,SSW,213,0.0,0.0,58,0.00,,,0.00,Wunderground v.1.13,2013-07-09 16:20:00,
2013-07-09 12:25:00,84.9,68.0,30.01,SW,215,0.0,1.0,57,0.00,,,0.00,Wunderground v.1.13,2013-07-09 16:25:00,
2013-07-09 12:35:00,85.7,68.2,30.00,SW,224,0.0,0.0,56,0.00,,,0.00,Wunderground v.1.13,2013-07-09 16:35:00,
2013-07-09 12:40:00,86.3,68.8,30.00,SW,222,0.0,0.0,56,0.00,,,0.00,Wunderground v.1.13,2013-07-09 16:40:00,
2013-07-09 12:45:00,86.7,70.2,30.00,SW,222,0.0,0.0,58,0.00,,,0.00,Wunderground v.1.13,2013-07-09 16:45:00,
2013-07-09 12:50:00,87.0,69.4,30.00,WSW,246,0.0,0.0,56,0.00,,,0.00,Wunderground v.1.13,2013-07-09 16:50:00,
2013-07-09 13:00:00,86.7,68.1,29.99,SSE,150,0.0,0.0,54,0.00,,,0.00,Wunderground v.1.13,2013-07-09 17:00:00,
2013-07-09 13:05:00,86.7,68.1,29.99,SE,144,1.0,1.0,54,0.00,,,0.00,Wunderground v.1.13,2013-07-09 17:05:00,
2013-07-09 13:10:00,87.2,68.5,29.99,SE,144,0.0,0.0,54,0.00,,,0.00,Wunderground v.1.13,2013-07-09 17:10:00,
2013-07-09 13:15:00,87.6,68.4,29.99,SE,145,0.0,0.0,53,0.00,,,0.00,Wunderground v.1.13,2013-07-09 17:15:00,
2013-07-09 13:20:00,87.4,68.7,29.99,SE,145,0.0,0.0,54,0.00,,,0.00,Wunderground v.1.13,2013-07-09 17:20:00,
2013-07-09 13:30:00,87.2,67.4,29.99,SE,145,0.0,0.0,52,0.00,,,0.00,Wunderground v.1.13,2013-07-09 17:30:00,
2013-07-09 13:35:00,87.6,68.9,29.99,SE,145,0.0,0.0,54,0.00,,,0.00,Wunderground v.1.13,2013-07-09 17:35:00,
2013-07-09 13:40:00,87.4,69.3,29.99,SE,145,0.0,0.0,55,0.00,,,0.00,Wunderground v.1.13,2013-07-09 17:40:00,
2013-07-09 13:45:00,87.2,68.0,29.98,SW,222,0.0,0.0,53,0.00,,,0.00,Wunderground v.1.13,2013-07-09 17:45:00,
2013-07-09 13:50:00,87.2,68.0,29.98,SW,227,0.0,0.0,53,0.00,,,0.00,Wunderground v.1.13,2013-07-09 17:50:00,
2013-07-09 14:00:00,86.7,68.6,29.98,SSW,198,0.0,0.0,55,0.00,,,0.00,Wunderground v.1.13,2013-07-09 18:00:00,
2013-07-09 14:05:00,86.7,69.1,29.98,WNW,299,0.0,0.0,56,0.00,,,0.00,Wunderground v.1.13,2013-07-09 18:05:00,
2013-07-09 14:10:00,87.2,68.5,29.98,WNW,299,0.0,0.0,54,0.00,,,0.00,Wunderground v.1.13,2013-07-09 18:10:00,
2013-07-09 14:15:00,87.8,69.1,29.98,West,270,0.0,1.0,54,0.00,,,0.00,Wunderground v.1.13,2013-07-09 18:15:00,
2013-07-09 14:20:00,88.2,67.8,29.98,SW,234,0.0,0.0,51,0.00,,,0.00,Wunderground v.1.13,2013-07-09 18:20:00,
2013-07-09 14:25:00,88.6,67.6,29.98,SE,131,1.0,1.0,50,0.00,,,0.00,Wunderground v.1.13,2013-07-09 18:25:00,
2013-07-09 14:35:00,89.0,68.5,29.98,SE,136,0.0,0.0,51,0.00,,,0.00,Wunderground v.1.13,2013-07-09 18:35:00,
2013-07-09 14:40:00,89.0,67.9,29.98,ESE,117,0.0,3.0,50,0.00,,,0.00,Wunderground v.1.13,2013-07-09 18:40:00,
2013-07-09 14:45:00,89.0,66.8,29.98,ESE,119,1.0,1.0,48,0.00,,,0.00,Wunderground v.1.13,2013-07-09 18:45:00,
2013-07-09 14:50:00,89.0,68.5,29.98,West,270,1.0,1.0,51,0.00,,,0.00,Wunderground v.1.13,2013-07-09 18:50:00,
2013-07-09 14:55:00,89.5,67.8,29.98,ESE,123,0.0,1.0,49,0.00,,,0.00,Wunderground v.1.13,2013-07-09 18:55:00,
2013-07-09 15:00:00,89.3,67.6,29.97,WSW,257,1.0,1.0,49,0.00,,,0.00,Wunderground v.1.13,2013-07-09 19:00:00,
2013-07-09 15:10:00,89.5,68.4,29.97,WSW,257,0.0,1.0,50,0.00,,,0.00,Wunderground v.1.13,2013-07-09 19:10:00,
2013-07-09 15:24:00,89.7,67.4,29.97,SE,140,0.0,0.0,48,0.00,,,0.00,Wunderground v.1.13,2013-07-09 19:24:00,
2013-07-09 15:30:00,88.8,70.0,29.97,SE,140,1.0,3.0,54,0.00,,,0.00,Wunderground v.1.13,2013-07-09 19:30:00,
2013-07-09 15:35:00,87.2,71.1,29.97,ESE,107,2.0,2.0,59,0.00,,,0.00,Wunderground v.1.13,2013-07-09 19:35:00,
2013-07-09 15:40:00,86.1,71.1,29.97,SE,141,2.0,2.0,61,0.00,,,0.00,Wunderground v.1.13,2013-07-09 19:40:00,
2013-07-09 15:45:00,86.1,70.6,29.96,ESE,103,1.0,1.0,60,0.00,,,0.00,Wunderground v.1.13,2013-07-09 19:45:00,
2013-07-09 15:50:00,86.3,71.3,29.96,SSE,164,1.0,1.0,61,0.00,,,0.00,Wunderground v.1.13,2013-07-09 19:50:00,
2013-07-09 15:55:00,86.1,71.1,29.96,SSE,148,1.0,1.0,61,0.00,,,0.00,Wunderground v.1.13,2013-07-09 19:55:00,
2013-07-09 16:05:00,86.3,70.8,29.96,SSE,147,1.0,1.0,60,0.00,,,0.00,Wunderground v.1.13,2013-07-09 20:05:00,
2013-07-09 16:10:00,85.7,71.2,29.96,SSE,147,1.0,1.0,62,0.00,,,0.00,Wunderground v.1.13,2013-07-09 20:10:00,
2013-07-09 16:15:00,85.3,71.3,29.96,SE,145,0.0,0.0,63,0.00,,,0.00,Wunderground v.1.13,2013-07-09 20:15:00,
2013-07-09 16:20:00,84.9,71.4,29.96,East,80,0.0,0.0,64,0.00,,,0.00,Wunderground v.1.13,2013-07-09 20:20:00,
2013-07-09 16:30:00,84.1,72.0,29.97,East,95,0.0,1.0,67,0.00,,,0.00,Wunderground v.1.13,2013-07-09 20:30:00,
2013-07-09 16:35:00,82.6,70.1,29.97,WSW,251,1.0,5.0,66,0.00,,,0.00,Wunderground v.1.13,2013-07-09 20:35:00,
2013-07-09 16:40:00,80.3,70.4,29.97,WSW,258,1.0,1.0,72,0.68,,,0.07,Wunderground v.1.13,2013-07-09 20:40:00,
2013-07-09 16:45:00,78.5,71.4,29.97,WSW,258,1.0,1.0,79,0.45,,,0.14,Wunderground v.1.13,2013-07-09 20:45:00,
2013-07-09 16:50:00,77.4,71.8,29.97,WSW,258,0.0,0.0,83,0.13,,,0.16,Wunderground v.1.13,2013-07-09 20:50:00,
2013-07-09 16:55:00,76.8,71.9,29.97,WSW,258,0.0,0.0,85,0.11,,,0.16,Wunderground v.1.13,2013-07-09 20:55:00,
2013-07-09 17:00:00,76.3,72.1,29.98,WSW,257,0.0,0.0,87,0.06,,,0.16,Wunderground v.1.13,2013-07-09 21:00:00,
2013-07-09 17:10:00,76.0,72.5,29.98,NE,34,1.0,1.0,89,0.20,,,0.22,Wunderground v.1.13,2013-07-09 21:10:00,
2013-07-09 17:15:00,75.6,72.1,29.97,NNE,30,1.0,1.0,89,0.08,,,0.22,Wunderground v.1.13,2013-07-09 21:15:00,
2013-07-09 17:20:00,76.3,73.1,29.97,NNE,30,0.0,0.0,90,0.05,,,0.22,Wunderground v.1.13,2013-07-09 21:20:00,
2013-07-09 17:25:00,76.7,72.5,29.97,NNE,30,0.0,0.0,87,0.00,,,0.22,Wunderground v.1.13,2013-07-09 21:25:00,
2013-07-09 17:30:00,77.0,72.8,29.95,NNE,30,0.0,0.0,87,0.00,,,0.22,Wunderground v.1.13,2013-07-09 21:30:00,
2013-07-09 17:40:00,78.3,73.8,29.95,NNE,30,0.0,0.0,86,0.00,,,0.22,Wunderground v.1.13,2013-07-09 21:40:00,
2013-07-09 17:45:00,79.0,74.8,29.96,NNE,30,0.0,0.0,87,0.00,,,0.22,Wunderground v.1.13,2013-07-09 21:45:00,
2013-07-09 17:50:00,79.8,74.5,29.96,NE,40,0.0,1.0,84,0.00,,,0.22,Wunderground v.1.13,2013-07-09 21:50:00,
2013-07-09 17:55:00,80.5,75.2,29.96,ENE,59,0.0,0.0,84,0.00,,,0.22,Wunderground v.1.13,2013-07-09 21:55:00,
2013-07-09 18:00:00,80.7,75.1,29.95,ENE,61,0.0,0.0,83,0.00,,,0.22,Wunderground v.1.13,2013-07-09 22:00:00,
2013-07-09 18:10:00,80.7,75.1,29.95,ENE,61,0.0,0.0,83,0.00,,,0.22,Wunderground v.1.13,2013-07-09 22:10:00,
2013-07-09 18:15:00,80.7,75.1,29.95,ENE,61,0.0,0.0,83,0.00,,,0.22,Wunderground v.1.13,2013-07-09 22:15:00,
2013-07-09 18:20:00,80.3,74.7,29.95,ENE,61,0.0,0.0,83,0.00,,,0.22,Wunderground v.1.13,2013-07-09 22:20:00,
2013-07-09 18:25:00,80.1,74.1,29.95,ENE,61,0.0,0.0,82,0.00,,,0.22,Wunderground v.1.13,2013-07-09 22:25:00,
2013-07-09 18:30:00,80.1,73.7,29.95,ENE,61,0.0,0.0,81,0.00,,,0.22,Wunderground v.1.13,2013-07-09 22:30:00,
2013-07-09 18:40:00,80.3,73.9,29.95,ENE,61,0.0,0.0,81,0.00,,,0.22,Wunderground v.1.13,2013-07-09 22:40:00,
2013-07-09 18:45:00,80.3,73.6,29.95,ENE,64,0.0,0.0,80,0.00,,,0.22,Wunderground v.1.13,2013-07-09 22:45:00,
2013-07-09 18:50:00,80.3,73.6,29.95,ENE,64,0.0,0.0,80,0.00,,,0.22,Wunderground v.1.13,2013-07-09 22:50:00,
2013-07-09 18:55:00,80.5,74.5,29.95,ENE,64,0.0,0.0,82,0.00,,,0.22,Wunderground v.1.13,2013-07-09 22:55:00,
2013-07-09 19:00:00,80.3,73.9,29.94,ENE,64,0.0,0.0,81,0.00,,,0.22,Wunderground v.1.13,2013-07-09 23:00:00,
2013-07-09 19:05:00,80.1,73.7,29.94,ENE,64,0.0,0.0,81,0.00,,,0.22,Wunderground v.1.13,2013-07-09 23:05:00,
2013-07-09 19:10:00,80.1,74.1,29.94,ENE,64,0.0,0.0,82,0.00,,,0.22,Wunderground v.1.13,2013-07-09 23:10:00,
2013-07-09 19:15:00,79.9,73.9,29.94,ENE,64,0.0,0.0,82,0.00,,,0.22,Wunderground v.1.13,2013-07-09 23:15:00,
2013-07-09 19:25:00,79.6,73.6,29.94,ENE,64,0.0,0.0,82,0.00,,,0.22,Wunderground v.1.13,2013-07-09 23:25:00,
2013-07-09 19:30:00,79.6,74.0,29.95,ENE,64,0.0,0.0,83,0.00,,,0.22,Wunderground v.1.13,2013-07-09 23:30:00,
2013-07-09 19:35:00,79.6,74.3,29.95,ENE,64,0.0,0.0,84,0.00,,,0.22,Wunderground v.1.13,2013-07-09 23:35:00,
2013-07-09 19:40:00,79.2,73.6,29.95,ENE,64,0.0,0.0,83,0.00,,,0.22,Wunderground v.1.13,2013-07-09 23:40:00,
2013-07-09 19:45:00,79.0,73.7,29.95,ENE,64,0.0,0.0,84,0.00,,,0.22,Wunderground v.1.13,2013-07-09 23:45:00,
2013-07-09 19:50:00,78.8,73.6,29.95,ENE,64,0.0,0.0,84,0.00,,,0.22,Wunderground v.1.13,2013-07-09 23:50:00,
2013-07-09 20:00:00,78.3,73.8,29.95,ENE,64,0.0,0.0,86,0.00,,,0.22,Wunderground v.1.13,2013-07-10 00:00:00,
2013-07-09 20:05:00,78.1,73.6,29.95,ENE,64,0.0,0.0,86,0.00,,,0.22,Wunderground v.1.13,2013-07-10 00:05:00,
2013-07-09 20:10:00,77.9,73.7,29.95,ENE,64,0.0,0.0,87,0.00,,,0.22,Wunderground v.1.13,2013-07-10 00:10:00,
2013-07-09 20:15:00,77.7,73.5,29.95,ENE,64,0.0,0.0,87,0.00,,,0.22,Wunderground v.1.13,2013-07-10 00:15:00,
2013-07-09 20:25:00,77.4,73.6,29.95,ENE,64,0.0,0.0,88,0.00,,,0.23,Wunderground v.1.13,2013-07-10 00:25:00,
2013-07-09 20:30:00,77.4,73.6,29.95,ENE,64,0.0,0.0,88,0.00,,,0.23,Wunderground v.1.13,2013-07-10 00:30:00,
2013-07-09 20:35:00,77.2,73.4,29.95,ENE,64,0.0,0.0,88,0.00,,,0.23,Wunderground v.1.13,2013-07-10 00:35:00,
2013-07-09 20:45:00,77.2,73.7,29.94,ENE,64,0.0,0.0,89,0.00,,,0.23,Wunderground v.1.13,2013-07-10 00:45:00,
2013-07-09 20:50:00,77.0,73.5,29.94,ENE,64,0.0,0.0,89,0.00,,,0.23,Wunderground v.1.13,2013-07-10 00:50:00,
2013-07-09 20:55:00,76.8,73.3,29.94,ENE,64,0.0,0.0,89,0.00,,,0.23,Wunderground v.1.13,2013-07-10 00:55:00,
2013-07-09 21:00:00,76.7,73.2,29.95,ENE,64,0.0,0.0,89,0.00,,,0.23,Wunderground v.1.13,2013-07-10 01:00:00,
2013-07-09 21:05:00,76.7,73.2,29.95,ENE,64,0.0,0.0,89,0.00,,,0.23,Wunderground v.1.13,2013-07-10 01:05:00,
2013-07-09 21:15:00,76.5,73.0,29.96,ENE,64,0.0,0.0,89,0.00,,,0.23,Wunderground v.1.13,2013-07-10 01:15:00,
2013-07-09 21:20:00,76.5,73.0,29.96,ENE,64,0.0,0.0,89,0.00,,,0.23,Wunderground v.1.13,2013-07-10 01:20:00,
2013-07-09 21:25:00,76.3,72.8,29.96,ENE,64,0.0,0.0,89,0.00,,,0.23,Wunderground v.1.13,2013-07-10 01:25:00,
2013-07-09 21:30:00,76.3,72.8,29.97,ENE,64,0.0,0.0,89,0.00,,,0.23,Wunderground v.1.13,2013-07-10 01:30:00,
2013-07-09 21:35:00,76.3,72.8,29.97,ENE,64,0.0,0.0,89,0.00,,,0.23,Wunderground v.1.13,2013-07-10 01:35:00,
2013-07-09 21:40:00,76.1,73.0,29.97,ENE,64,0.0,0.0,90,0.00,,,0.23,Wunderground v.1.13,2013-07-10 01:40:00,
2013-07-09 21:45:00,76.1,73.0,29.97,ENE,64,0.0,0.0,90,0.00,,,0.23,Wunderground v.1.13,2013-07-10 01:45:00,
2013-07-09 21:55:00,76.1,73.3,29.97,ENE,64,0.0,0.0,91,0.00,,,0.23,Wunderground v.1.13,2013-07-10 01:55:00,
2013-07-09 22:00:00,76.0,73.2,29.98,ENE,64,0.0,0.0,91,0.00,,,0.23,Wunderground v.1.13,2013-07-10 02:00:00,
2013-07-09 22:05:00,76.0,73.2,29.98,ENE,64,0.0,0.0,91,0.00,,,0.23,Wunderground v.1.13,2013-07-10 02:05:00,
2013-07-09 22:10:00,75.8,73.0,29.98,ENE,64,0.0,0.0,91,0.00,,,0.23,Wunderground v.1.13,2013-07-10 02:10:00,
2013-07-09 22:15:00,75.8,73.0,29.98,ENE,64,0.0,0.0,91,0.00,,,0.23,Wunderground v.1.13,2013-07-10 02:15:00,
2013-07-09 22:20:00,75.6,72.8,29.98,ENE,64,0.0,0.0,91,0.00,,,0.23,Wunderground v.1.13,2013-07-10 02:20:00,
2013-07-09 22:30:00,75.3,72.8,29.98,ENE,64,0.0,0.0,92,0.00,,,0.23,Wunderground v.1.13,2013-07-10 02:30:00,
2013-07-09 22:35:00,75.1,72.3,29.98,ENE,64,0.0,0.0,91,0.00,,,0.23,Wunderground v.1.13,2013-07-10 02:35:00,
2013-07-09 22:40:00,75.1,72.6,29.98,ENE,64,0.0,0.0,92,0.00,,,0.23,Wunderground v.1.13,2013-07-10 02:40:00,
2013-07-09 22:45:00,74.9,72.4,29.98,ENE,64,0.0,0.0,92,0.00,,,0.23,Wunderground v.1.13,2013-07-10 02:45:00,
2013-07-09 22:50:00,74.9,72.4,29.98,ENE,64,0.0,0.0,92,0.00,,,0.23,Wunderground v.1.13,2013-07-10 02:50:00,
2013-07-09 22:55:00,74.9,72.4,29.98,ENE,64,0.0,0.0,92,0.00,,,0.23,Wunderground v.1.13,2013-07-10 02:55:00,
2013-07-09 23:00:00,74.9,72.4,29.98,ENE,64,0.0,0.0,92,0.00,,,0.23,Wunderground v.1.13,2013-07-10 03:00:00,
2013-07-09 23:10:00,75.1,72.6,29.98,ENE,64,0.0,0.0,92,0.00,,,0.23,Wunderground v.1.13,2013-07-10 03:10:00,
2013-07-09 23:15:00,75.1,72.6,29.98,ENE,64,0.0,0.0,92,0.00,,,0.23,Wunderground v.1.13,2013-07-10 03:15:00,
2013-07-09 23:20:00,75.3,72.8,29.98,ENE,64,0.0,0.0,92,0.00,,,0.23,Wunderground v.1.13,2013-07-10 03:20:00,
2013-07-09 23:25:00,75.3,72.8,29.98,ENE,64,0.0,0.0,92,0.00,,,0.23,Wunderground v.1.13,2013-07-10 03:25:00,
2013-07-09 23:35:00,75.1,72.6,29.98,ENE,64,0.0,0.0,92,0.00,,,0.23,Wunderground v.1.13,2013-07-10 03:35:00,
2013-07-09 23:40:00,75.1,72.3,29.98,ENE,64,0.0,0.0,91,0.00,,,0.23,Wunderground v.1.13,2013-07-10 03:40:00,
2013-07-09 23:45:00,74.9,72.1,29.97,ENE,64,0.0,0.0,91,0.00,,,0.23,Wunderground v.1.13,2013-07-10 03:45:00,
2013-07-09 23:50:00,74.7,71.9,29.97,ENE,64,0.0,0.0,91,0.00,,,0.23,Wunderground v.1.13,2013-07-10 03:50:00,
2013-07-09 23:55:00,74.7,71.6,29.97,ENE,64,0.0,0.0,90,0.00,,,0.23,Wunderground v.1.13,2013-07-10 03:55:00,